User: anonymous
Location: Wildlife_Club
(35.6000°N, 81.4330°W)
Time: 13:24:22
(UTC-04:00)
Language:

USA 129 - Orbit

View from above orbital plane
View from above orbital plane
View from above satellite
View from above satellite

Ground track
Ground track

The orbit data is extracted from the following two-line orbital elements,

1 24680U 96072A   14110.83695257 0.00073000  00000-0  34036-3 0    08
2 24680  97.5219 167.7044 0319453 247.2139 112.7860 15.35572792    08
Epoch (UTC): 20 April 2014 20:05:12
Eccentricity: 0.0319453
inclination: 97.5219°
perigee height: 241 km
apogee height: 677 km
right ascension of ascending node: 167.7044°
argument of perigee: 247.2139°
revolutions per day: 15.35572792
mean anomaly at epoch: 112.7860°
orbit number at epoch: 0

The dashed part of the orbit path shows where the satellite is in the earth's shadow,  

DLR